LEPA Airport Information

Runway Information
Runway 06L Length 10728 ft width 148 ft
Elevation 15 ft Threshold 0 ft Heading 59
Runway 24R Length 10728 ft Width 148 ft
Elevation 8 ft Threshold 230 ft Heading 239
Runway 06R Length 9842 ft width 148 ft
Elevation 24 ft Threshold 1345 ft Heading 59
Runway 24L Length 9842 ft Width 148 ft
Elevation 8 ft Threshold 0 ft Heading 239
Airport Frequencies
Type APP Name APP Frequency 118.95 MHZ
Type ATIS Name ATIS Frequency 119.25 MHZ
Type CLD Name CLNC DEL Frequency 121.6 MHZ
Type GND Name GND Frequency 121.7 MHZ
Type OPS Name OPS Frequency 130.25 MHZ
Type TWR Name TWR Frequency 118.3 MHZ
Airport Navaids
Airport Weather Information & NOTAM
ADDS - METARS form results

(2220 UTC 20 June 2018)
 
METAR text: LEPA 202200Z 07002KT CAVOK 21/18 Q1018 NOSIG
Conditions at: LEPA (PALMA DE MALLORC, ES) observed 2200 UTC 20 June 2018
Temperature: 21.0°C (70°F)
Dewpoint: 18.0°C (64°F) [RH = 83%]
Pressure (altimeter): 30.06 inches Hg (1018.0 mb)
Winds: from the ENE (70 degrees) at 2 MPH (2 knots; 1.0 m/s)
Visibility: 6 or more miles (10+ km)
Ceiling: ceiling and visibility are OK
Clouds: unknown
Weather: no significant weather observed at this time

METAR text: LEPA 202130Z VRB02KT CAVOK 22/18 Q1019 NOSIG
Conditions at: LEPA (PALMA DE MALLORC, ES) observed 2130 UTC 20 June 2018
Temperature: 22.0°C (72°F)
Dewpoint: 18.0°C (64°F) [RH = 78%]
Pressure (altimeter): 30.09 inches Hg (1019.0 mb)
Winds: variable direction winds at 2 MPH (2 knots; 1.0 m/s)
Visibility: 6 or more miles (10+ km)
Ceiling: ceiling and visibility are OK
Clouds: unknown
Weather: no significant weather observed at this time